Location: Bacharowice
(49.9333°N, 19.5833°E)
Time: 23:03:52
(UTC+00:00)

Landsat 7 - Pass Details

Date: 11 May 2021
Orbit: 701 x 703 km, 98.0° (Epoch: 18 June)

Event Time Altitude Azimuth Distance (km) Brightness Sun altitude
Exits shadow 18:43:59 - 144° (SE) 2,682 6.2 -4.7°
Reaches altitude 10° 18:45:17 10° 141° (SE) 2,169 5.7 -4.9°
Maximum altitude 18:49:49 46° 68° (ENE) 945 4.3 -5.5°
Drops below altitude 10° 18:54:23 10° 356° (N) 2,184 7.0 -6.0°
Sets 18:56:42 0° 351° (N) 3,107 8.0 -6.3°
